Flag for Japan Weather past 2 weeks in Kawasaki, Japan

Now
54 °F

Light rain. Passing clouds.


Feels Like: 52 °F
Forecast: 54 / 64 °F
Wind: 7 mph from Southeast

Location: Tokyo International Airport


UV Index: 0 (Low)

Visibility: N/A


Pressure: 30.18 "Hg

Humidity: 72%

Dew point: 45 °F

Location of KawasakiLocation

Historic Weather in Kawasaki

°F

Kawasaki temperature yesterday

Maximum temperature yesterday: 61 °F (at 12:30 PM)
Minimum temperature yesterday: 48 °F (at 12:00 AM)
Average temperature yesterday: 53 °F

Past Weeks' High & Low Weather Summary

 TemperatureHumidityPressure
High73 °F (Apr 16, 1:30 PM)94% (Apr 18, 1:00 AM)30.24 "Hg (Apr 18, 1:00 AM)
Low41 °F (Apr 7, 4:30 AM)16% (Apr 11, 11:48 AM)29.62 "Hg (Apr 10, 2:30 PM)
Average56 °F57%29.95 "Hg
* Reported Apr 5 7:00 PM — Apr 20 7:30 PM, Kawasaki, Weather by CustomWeather, © 2014

Note: Actual official high and low records may vary slightly from our data, if they occured in-between our weather recording intervals... More about our weather records

Advertising

Historic Weather Conditions — Data for Previous 24 hours

 ConditionsComfort  
Time TempWeatherWind HumidityBarometerVisibility
7:30 PM
Apr 20
54 °FPassing clouds.8 mph72%30.18 "HgN/A
7:00 PM54 °FLight rain. Passing clouds.9 mph72%30.18 "HgN/A
6:30 PM54 °FLight rain. Passing clouds.8 mph72%30.18 "HgN/A
6:00 PM55 °FLight rain. Partly sunny.6 mph67%30.18 "HgN/A
5:30 PM54 °FSprinkles. Partly sunny.7 mph67%30.15 "HgN/A
5:00 PM55 °FPartly sunny.8 mph63%30.15 "HgN/A
4:30 PM54 °FBroken clouds.10 mph67%30.15 "HgN/A
4:00 PM55 °FBroken clouds.10 mph63%30.15 "HgN/A
3:30 PM55 °FPartly sunny.9 mph59%30.15 "HgN/A
3:00 PM55 °FPartly sunny.7 mph63%30.15 "HgN/A
2:30 PM55 °FPartly sunny.9 mph63%30.15 "HgN/A
2:00 PM55 °FPartly sunny.7 mph59%30.18 "HgN/A
1:30 PM55 °FPartly sunny.6 mph55%30.21 "HgN/A
1:00 PM55 °FBroken clouds.5 mph59%30.21 "HgN/A
12:30 PM55 °FPartly sunny.3 mph59%30.21 "HgN/A
12:00 PM54 °FOvercast.6 mph58%30.21 "HgN/A
11:30 AM54 °FPartly sunny.5 mph63%30.21 "HgN/A
11:00 AM52 °FPartly sunny.7 mph58%30.21 "HgN/A
10:30 AM52 °FPartly sunny.9 mph62%30.21 "HgN/A
10:00 AM52 °FPartly sunny.9 mph62%30.24 "HgN/A
9:30 AM50 °FPartly sunny.8 mph67%30.24 "HgN/A
9:00 AM50 °FPartly sunny.9 mph67%30.24 "HgN/A
8:30 AM48 °FPartly sunny.9 mph66%30.24 "HgN/A
8:00 AM48 °FBroken clouds.10 mph66%30.24 "HgN/A
7:30 AM46 °FPartly sunny.9 mph71%30.24 "HgN/A
7:00 AM46 °FPartly sunny.9 mph71%30.24 "HgN/A
6:30 AM46 °FBroken clouds.14 mph71%30.24 "HgN/A
6:00 AM46 °FBroken clouds.14 mph76%30.24 "HgN/A
5:30 AM45 °FBroken clouds.16 mph76%30.24 "HgN/A
5:00 AM45 °FPartly cloudy.15 mph76%30.21 "HgN/A
4:30 AM45 °FPartly cloudy.13 mph76%30.21 "HgN/A
4:00 AM46 °FPartly cloudy.13 mph71%30.21 "HgN/A
3:30 AM46 °FLight rain. Passing clouds.15 mph71%30.21 "HgN/A
3:00 AM46 °FPassing clouds.16 mph76%30.21 "HgN/A
2:30 AM46 °FPassing clouds.15 mph76%30.21 "HgN/A
2:00 AM46 °FPassing clouds.14 mph76%30.21 "HgN/A
1:30 AM46 °FLight rain. Partly cloudy.17 mph76%30.18 "HgN/A
1:00 AM48 °FLight rain. Partly cloudy.17 mph71%30.21 "HgN/A
12:30 AM48 °FLight rain. Partly cloudy.17 mph76%30.21 "HgN/A
12:00 AM48 °FLight rain. Passing clouds.20 mph76%30.21 "HgN/A
11:30 PM
Apr 19
48 °FLight rain. Partly cloudy.17 mph76%30.21 "HgN/A
11:00 PM48 °FLight rain. Partly cloudy.17 mph76%30.21 "HgN/A
10:30 PM50 °FLight rain. Partly cloudy.18 mph76%30.18 "HgN/A
10:00 PM50 °FLight rain. Partly cloudy.20 mph71%30.18 "HgN/A
9:30 PM50 °FLight rain. Partly cloudy.21 mph71%30.18 "HgN/A
9:00 PM50 °FLight rain. Passing clouds.22 mph71%30.15 "HgN/A
8:30 PM50 °FPassing clouds.23 mph71%30.15 "HgN/A
8:00 PM52 °FPassing clouds.23 mph72%30.15 "HgN/A
Weather by CustomWeather, © 2014

See weather overview